Location: Newark
(35.6799°N, 139.7636°E)
Time: 00:13:08
(UTC+00:00)

Courier 1B - Pass Details

Date: 19 December 2019
Orbit: 962 x 1209 km, 28.3° (Epoch: 21 January)

Event Time Altitude Azimuth Distance (km) Brightness Sun altitude
Rises 10:31:04 0° 259° (WSW) 3,724 11.5 -35.8°
Reaches altitude 10° 10:33:47 10° 253° (WSW) 2,804 10.6 -36.4°
Enters shadow 10:38:33 39° 219° (SW) 1,517 8.6 -37.3°
